FW3005 Weather Reports


time (UTC)temp
C
wind
direction
speed
KPH
gust
KPH
rain 1hr
cm
rain 24hr
cm
rain mn
cm
humidity
%
barometer
mb
20260509111521 10 205 0.0 4.8 0.00 0.00 0.00 91 1004.5
20260509110020 9 208 0.0 6.4 0.00 0.00 0.00 91 1004.4
20260509104520 9 143 0.0 6.4 0.00 0.00 0.00 91 1004.5
20260509103018 9 163 0.0 4.8 0.00 0.00 0.00 91 1004.6
20260509101518 9 203 1.6 4.8 0.00 0.00 0.00 91 1004.7
20260509100016 9 148 0.0 3.2 0.00 0.00 0.00 90 1004.9
20260509094516 9 170 0.0 3.2 0.00 0.00 0.00 91 1005.0
20260509093013 9 185 0.0 6.4 0.00 0.00 0.00 91 1005.1
20260509091511 9 161 0.0 3.2 0.00 0.00 0.00 90 1005.3
20260509090011 9 155 0.0 1.6 0.00 0.00 0.00 90 1005.2
20260509084510 9 193 0.0 1.6 0.00 0.00 0.00 90 1005.1
20260509083011 9 147 1.6 4.8 0.00 0.00 0.00 90 1005.1
20260509081508 9 226 0.0 1.6 0.00 0.00 0.00 90 1005.2
20260509080005 9 141 0.0 3.2 0.00 0.00 0.00 89 1005.2
20260509074504 9 150 0.0 1.6 0.00 0.00 0.00 89 1005.5
20260509073007 9 145 0.0 1.6 0.00 0.00 0.00 89 1005.5
20260509071603 10 152 0.0 0.0 0.00 0.00 0.00 88 1005.6
20260509070059 10 148 0.0 1.6 0.00 0.00 0.00 88 1005.5
20260509064559 10 137 0.0 1.6 0.00 0.00 0.00 88 1005.8
20260509063102 10 166 0.0 0.0 0.00 0.00 0.00 88 1005.9
20260509061553 10 177 0.0 3.2 0.00 0.00 0.00 88 1006.1
20260509060109 10 170 0.0 1.6 0.00 0.00 0.00 88 1006.2
20260509054552 10 148 0.0 0.0 0.00 0.00 0.00 87 1006.1
20260509053100 11 209 0.0 1.6 0.00 0.00 0.00 87 1006.3
20260509051548 11 152 0.0 1.6 0.00 0.00 0.00 86 1006.1
20260509050044 11 149 0.0 1.6 0.00 0.00 0.00 85 1006.4
20260509044542 11 210 0.0 1.6 0.00 0.00 0.00 85 1006.5
20260509043050 12 179 0.0 4.8 0.00 0.00 0.00 84 1006.6
20260509041541 12 172 0.0 1.6 0.00 0.00 0.00 83 1006.6
20260509040058 12 220 0.0 3.2 0.00 0.00 0.00 82 1006.8
20260509034540 12 146 0.0 1.6 0.00 0.00 0.00 81 1006.9
20260509033101 12 213 0.0 1.6 0.00 0.00 0.00 80 1006.8
20260509031539 13 150 0.0 1.6 0.00 0.00 0.00 79 1006.9
20260509030040 13 151 0.0 4.8 0.00 0.00 0.00 78 1007.0
20260509024544 13 168 0.0 3.2 0.00 0.00 0.00 78 1007.1
20260509023038 13 243 0.0 1.6 0.00 0.00 0.00 77 1007.0
20260509021537 14 163 0.0 6.4 0.00 0.00 0.00 77 1007.1
20260509020037 14 180 0.0 4.8 0.00 0.00 0.00 76 1006.9
20260509014537 15 207 0.0 11.3 0.00 0.03 0.00 75 1006.7
20260509013036 15 159 0.0 4.8 0.00 0.03 0.00 73 1006.8
20260509011539 15 229 1.6 9.7 0.00 0.03 0.00 70 1006.7
20260509010038 16 153 0.0 0.0 0.00 0.03 0.00 69 1006.6
20260509004534 16 155 0.0 0.0 0.00 0.03 0.00 67 1006.5
20260509003035 16 172 0.0 0.0 0.00 0.03 0.00 66 1006.4
20260509001533 17 280 0.0 6.4 0.00 0.03 0.00 65 1006.5
20260509000032 18 243 0.0 3.2 0.00 0.03 0.00 62 1006.6
20260508234532 18 128 0.0 4.8 0.00 0.23 0.00 62 1006.5
20260508233036 18 288 0.0 4.8 0.00 0.23 0.00 63 1006.5
20260508231531 18 207 0.0 8.0 0.00 0.23 0.00 63 1006.5
20260508230030 18 272 0.0 8.0 0.00 0.23 0.00 64 1006.5
20260508224529 18 136 4.8 11.3 0.00 0.23 0.00 62 1006.6
20260508223030 18 230 0.0 11.3 0.00 0.23 0.00 61 1006.7
20260508221526 18 159 0.0 11.3 0.00 0.23 0.00 61 1006.7
20260508220025 19 153 0.0 9.7 0.00 0.23 0.00 60 1006.7
20260508214527 20 283 0.0 4.8 0.00 0.23 0.00 57 1006.7
20260508213022 19 172 1.6 9.7 0.00 0.23 0.00 60 1006.9
20260508211521 19 281 1.6 6.4 0.00 0.23 0.00 58 1006.9
20260508210031 19 148 0.0 9.7 0.00 0.23 0.00 59 1007.1
20260508204519 18 165 3.2 11.3 0.00 0.23 0.00 60 1007.1
20260508203016 19 249 0.0 8.0 0.00 0.23 0.00 60 1007.4
20260508201514 19 134 3.2 9.7 0.00 0.23 0.00 56 1007.7
20260508200014 20 218 1.6 8.0 0.00 0.23 0.00 57 1008.1
20260508194510 19 151 4.8 11.3 0.00 0.23 0.00 59 1008.2
20260508193007 18 173 1.6 6.4 0.00 0.23 0.00 60 1008.2
20260508191503 18 118 0.0 8.0 0.00 0.23 0.00 62 1008.4
20260508190004 18 122 0.0 12.9 0.00 0.23 0.00 62 1008.6
20260508184615 18 82 0.0 6.4 0.00 0.23 0.00 62 1008.9
20260508183101 18 201 0.0 6.4 0.00 0.23 0.00 62 1009.0
20260508181604 18 211 1.6 4.8 0.00 0.23 0.00 61 1009.1
20260508180105 17 208 1.6 4.8 0.00 0.23 0.00 64 1009.2
20260508174554 18 125 0.0 6.4 0.00 0.23 0.00 62 1009.5
20260508173053 18 109 1.6 6.4 0.00 0.23 0.00 63 1009.9
20260508171548 17 240 0.0 8.0 0.00 0.23 0.00 70 1010.2
20260508170047 16 109 1.6 9.7 0.00 0.23 0.00 67 1010.2
20260508164544 16 146 1.6 9.7 0.00 0.23 0.00 69 1010.4
20260508163057 16 181 1.6 6.4 0.00 0.23 0.00 68 1010.6
20260508161552 16 268 1.6 12.9 0.00 0.23 0.00 69 1010.7
20260508160037 16 276 1.6 8.0 0.00 0.23 0.00 71 1010.9
20260508154535 15 146 0.0 8.0 0.00 0.23 0.00 73 1011.0
20260508153051 15 295 1.6 9.7 0.00 0.23 0.00 74 1011.1
20260508151533 16 167 0.0 6.4 0.00 0.23 0.00 74 1011.1
20260508150030 15 278 3.2 8.0 0.00 0.23 0.00 75 1011.2
20260508144526 14 173 3.2 8.0 0.00 0.23 0.00 77 1011.2
20260508143025 13 210 0.0 6.4 0.00 0.23 0.00 79 1011.4
20260508141520 13 269 1.6 8.0 0.00 0.23 0.00 81 1011.4
20260508140016 12 147 0.0 9.7 0.00 0.23 0.00 82 1011.7
20260508134516 11 156 0.0 6.4 0.00 0.23 0.00 82 1011.5
20260508133011 11 162 0.0 6.4 0.00 0.23 0.00 84 1011.7
20260508131508 10 158 0.0 3.2 0.00 0.23 0.00 84 1011.7
20260508130007 10 153 0.0 1.6 0.00 0.23 0.00 84 1011.7
20260508124501 10 152 0.0 3.2 0.00 0.23 0.00 86 1011.9
20260508123059 9 154 0.0 3.2 0.00 0.23 0.00 88 1011.9
20260508121555 8 124 0.0 0.0 0.00 0.23 0.00 88 1012.0
20260508120101 7 124 0.0 0.0 0.00 0.23 0.00 88 1011.9
20260508114600 7 147 0.0 0.0 0.00 0.23 0.00 89 1011.4
20260508113058 7 147 0.0 0.0 0.00 0.23 0.00 89 1011.5